Volver al catálogo

STARLINK-37250

ActivoComunicacionesSSO
NORAD 68609·PAYLOAD·🇺🇸 United States

Lanzado Apr 5, 2026 desde Vandenberg Space Force Base

Loading…

Próximos Pases (próximas 24 horas)

TLE

ActualizadoSource: CelesTrak SupGP

Época: Sep 15, 2026, 03:23 UTC

1 68609C 26073H   26258.14145833 -.00048496  00000+0 -15054-2 0  2586
2 68609  97.2851  96.1589 0002043  90.0670 301.4372 15.33462619    13

Sigue STARLINK-37250 en tiempo real con AllMySat

Download on the App Store